| time (UTC) | temp F | wind direction | speed MPH | gust MPH | rain 1hr in | rain 24hr in | rain mn in | humidity % | barometer mb |
| 20260506013520 | 74 | 0 | 0.0 | 4.0 | 0.00 | 0.00 | 0.00 | 62 | 1015.3 |
| 20260506013037 | 74 | 136 | 0.0 | 4.0 | 0.00 | 0.00 | 0.00 | 61 | 1015.1 |
| 20260506012517 | 74 | 153 | 0.0 | 2.0 | 0.00 | 0.00 | 0.00 | 61 | 1015.0 |
| 20260506012017 | 74 | 0 | 0.0 | 2.0 | 0.00 | 0.00 | 0.00 | 61 | 1014.9 |
| 20260506011539 | 75 | 0 | 0.0 | 4.0 | 0.00 | 0.00 | 0.00 | 60 | 1014.9 |
| 20260506011017 | 75 | 0 | 1.0 | 6.0 | 0.00 | 0.00 | 0.00 | 59 | 1014.9 |
| 20260506010517 | 75 | 109 | 2.0 | 7.0 | 0.00 | 0.00 | 0.00 | 59 | 1014.7 |
| 20260506010035 | 75 | 98 | 3.0 | 8.0 | 0.00 | 0.00 | 0.00 | 59 | 1014.6 |
| 20260506005517 | 76 | 88 | 4.0 | 10.0 | 0.00 | 0.00 | 0.00 | 58 | 1014.6 |
| 20260506005016 | 76 | 86 | 4.0 | 10.0 | 0.00 | 0.00 | 0.00 | 58 | 1014.5 |
| 20260506004544 | 76 | 95 | 4.0 | 10.0 | 0.00 | 0.00 | 0.00 | 58 | 1014.4 |
| 20260506004018 | 76 | 59 | 5.0 | 10.0 | 0.00 | 0.00 | 0.00 | 57 | 1014.2 |
| 20260506003520 | 77 | 94 | 5.0 | 12.0 | 0.00 | 0.00 | 0.00 | 57 | 1014.1 |
| 20260506003034 | 77 | 77 | 6.0 | 12.0 | 0.00 | 0.00 | 0.00 | 57 | 1014.1 |
| 20260506002516 | 77 | 88 | 7.0 | 12.0 | 0.00 | 0.00 | 0.00 | 56 | 1014.0 |
| 20260506002016 | 78 | 88 | 5.0 | 11.0 | 0.00 | 0.00 | 0.00 | 56 | 1013.8 |
| 20260506001533 | 78 | 126 | 6.0 | 11.0 | 0.00 | 0.00 | 0.00 | 56 | 1013.9 |
| 20260506001018 | 78 | 77 | 7.0 | 11.0 | 0.00 | 0.00 | 0.00 | 56 | 1013.9 |
| 20260506000518 | 78 | 64 | 6.0 | 11.0 | 0.00 | 0.00 | 0.00 | 56 | 1013.8 |
| 20260506000053 | 78 | 73 | 6.0 | 10.0 | 0.00 | 0.00 | 0.00 | 56 | 1013.8 |
| 20260505235517 | 79 | 34 | 6.0 | 12.0 | 0.00 | 0.00 | 0.00 | 56 | 1013.8 |
| 20260505235017 | 79 | 77 | 8.0 | 12.0 | 0.00 | 0.00 | 0.00 | 55 | 1013.7 |
| 20260505234540 | 79 | 80 | 6.0 | 11.0 | 0.00 | 0.00 | 0.00 | 55 | 1013.6 |
| 20260505234018 | 80 | 78 | 7.0 | 13.0 | 0.00 | 0.00 | 0.00 | 55 | 1013.5 |
| 20260505233516 | 80 | 65 | 6.0 | 13.0 | 0.00 | 0.00 | 0.00 | 54 | 1013.4 |
| 20260505233034 | 81 | 47 | 7.0 | 12.0 | 0.00 | 0.00 | 0.00 | 52 | 1013.5 |
| 20260505232517 | 82 | 56 | 5.0 | 12.0 | 0.00 | 0.00 | 0.00 | 50 | 1013.4 |
| 20260505232017 | 83 | 104 | 3.0 | 6.0 | 0.00 | 0.00 | 0.00 | 49 | 1013.3 |
| 20260505231535 | 83 | 87 | 2.0 | 8.0 | 0.00 | 0.00 | 0.00 | 50 | 1013.3 |
| 20260505231016 | 83 | 96 | 3.0 | 8.0 | 0.00 | 0.00 | 0.00 | 48 | 1013.3 |
| 20260505230516 | 84 | 91 | 4.0 | 8.0 | 0.00 | 0.00 | 0.00 | 47 | 1013.3 |
| 20260505230042 | 84 | 72 | 3.0 | 7.0 | 0.00 | 0.00 | 0.00 | 46 | 1013.3 |
| 20260505225522 | 84 | 52 | 2.0 | 6.0 | 0.00 | 0.00 | 0.00 | 46 | 1013.4 |
| 20260505225025 | 84 | 78 | 3.0 | 6.0 | 0.00 | 0.00 | 0.00 | 46 | 1013.4 |
| 20260505224547 | 84 | 65 | 3.0 | 8.0 | 0.00 | 0.00 | 0.00 | 46 | 1013.5 |
| 20260505224020 | 84 | 98 | 3.0 | 8.0 | 0.00 | 0.00 | 0.00 | 46 | 1013.5 |
| 20260505223522 | 85 | 115 | 4.0 | 10.0 | 0.00 | 0.00 | 0.00 | 45 | 1013.5 |
| 20260505223039 | 85 | 67 | 4.0 | 10.0 | 0.00 | 0.00 | 0.00 | 45 | 1013.5 |
| 20260505222518 | 85 | 90 | 5.0 | 10.0 | 0.00 | 0.00 | 0.00 | 45 | 1013.5 |
| 20260505222017 | 86 | 57 | 2.0 | 6.0 | 0.00 | 0.00 | 0.00 | 44 | 1013.5 |
| 20260505221544 | 86 | 85 | 2.0 | 8.0 | 0.00 | 0.00 | 0.00 | 44 | 1013.6 |
| 20260505221020 | 85 | 107 | 4.0 | 8.0 | 0.00 | 0.00 | 0.00 | 45 | 1013.6 |
| 20260505220516 | 85 | 108 | 5.0 | 8.0 | 0.00 | 0.00 | 0.00 | 43 | 1013.6 |
| 20260505220035 | 85 | 85 | 3.0 | 7.0 | 0.00 | 0.00 | 0.00 | 46 | 1013.6 |
| 20260505215521 | 84 | 32 | 4.0 | 7.0 | 0.00 | 0.00 | 0.00 | 45 | 1013.6 |
| 20260505215017 | 84 | 38 | 3.0 | 7.0 | 0.00 | 0.00 | 0.00 | 45 | 1013.6 |
| 20260505214544 | 84 | 51 | 2.0 | 9.0 | 0.00 | 0.00 | 0.00 | 47 | 1013.6 |
| 20260505214022 | 84 | 81 | 3.0 | 9.0 | 0.00 | 0.00 | 0.00 | 46 | 1013.7 |
| 20260505213520 | 84 | 71 | 4.0 | 9.0 | 0.00 | 0.00 | 0.00 | 46 | 1013.6 |
| 20260505213037 | 84 | 35 | 5.0 | 9.0 | 0.00 | 0.00 | 0.00 | 45 | 1013.7 |
| 20260505212521 | 84 | 49 | 3.0 | 9.0 | 0.00 | 0.00 | 0.00 | 46 | 1013.6 |
| 20260505212020 | 84 | 69 | 4.0 | 10.0 | 0.00 | 0.00 | 0.00 | 45 | 1013.6 |
| 20260505211557 | 85 | 74 | 4.0 | 10.0 | 0.00 | 0.00 | 0.00 | 44 | 1013.6 |
| 20260505211016 | 85 | 46 | 3.0 | 10.0 | 0.00 | 0.00 | 0.00 | 44 | 1013.5 |
| 20260505210516 | 87 | 72 | 5.0 | 10.0 | 0.00 | 0.00 | 0.00 | 42 | 1013.4 |
| 20260505210041 | 89 | 84 | 3.0 | 7.0 | 0.00 | 0.00 | 0.00 | 38 | 1013.4 |
| 20260505205526 | 89 | 88 | 2.0 | 6.0 | 0.00 | 0.00 | 0.00 | 40 | 1013.4 |
| 20260505205024 | 87 | 250 | 1.0 | 5.0 | 0.00 | 0.00 | 0.00 | 43 | 1013.4 |
| 20260505204554 | 87 | 145 | 0.0 | 8.0 | 0.00 | 0.00 | 0.00 | 40 | 1013.5 |
| 20260505204024 | 86 | 108 | 2.0 | 10.0 | 0.00 | 0.00 | 0.00 | 41 | 1013.5 |
| 20260505203520 | 87 | 87 | 4.0 | 10.0 | 0.00 | 0.00 | 0.00 | 41 | 1013.6 |
| 20260505203041 | 88 | 128 | 1.0 | 8.0 | 0.00 | 0.00 | 0.00 | 41 | 1013.5 |
| 20260505202521 | 88 | 91 | 3.0 | 9.0 | 0.00 | 0.00 | 0.00 | 41 | 1013.5 |
| 20260505202024 | 87 | 144 | 4.0 | 11.0 | 0.00 | 0.00 | 0.00 | 42 | 1013.7 |
| 20260505201541 | 86 | 57 | 4.0 | 11.0 | 0.00 | 0.00 | 0.00 | 43 | 1013.7 |
| 20260505201020 | 86 | 89 | 3.0 | 11.0 | 0.00 | 0.00 | 0.00 | 44 | 1013.7 |
| 20260505200527 | 87 | 112 | 6.0 | 10.0 | 0.00 | 0.00 | 0.00 | 43 | 1013.8 |
| 20260505200038 | 87 | 0 | 2.0 | 9.0 | 0.00 | 0.00 | 0.00 | 42 | 1013.9 |
| 20260505195516 | 86 | 52 | 4.0 | 9.0 | 0.00 | 0.00 | 0.00 | 42 | 1013.9 |
| 20260505195017 | 85 | 149 | 3.0 | 9.0 | 0.00 | 0.00 | 0.00 | 44 | 1013.9 |
| 20260505194536 | 85 | 96 | 5.0 | 10.0 | 0.00 | 0.00 | 0.00 | 44 | 1014.0 |
| 20260505194021 | 85 | 82 | 4.0 | 10.0 | 0.00 | 0.00 | 0.00 | 45 | 1014.1 |
| 20260505193516 | 84 | 83 | 2.0 | 10.0 | 0.00 | 0.00 | 0.00 | 45 | 1014.2 |
| 20260505193036 | 85 | 263 | 0.0 | 10.0 | 0.00 | 0.00 | 0.00 | 43 | 1014.1 |
| 20260505192518 | 87 | 61 | 5.0 | 10.0 | 0.00 | 0.00 | 0.00 | 42 | 1014.3 |
| 20260505192017 | 87 | 49 | 3.0 | 11.0 | 0.00 | 0.00 | 0.00 | 40 | 1014.3 |
| 20260505191535 | 87 | 112 | 6.0 | 11.0 | 0.00 | 0.00 | 0.00 | 42 | 1014.4 |
| 20260505191016 | 87 | 107 | 1.0 | 9.0 | 0.00 | 0.00 | 0.00 | 42 | 1014.3 |
| 20260505190516 | 87 | 171 | 5.0 | 9.0 | 0.00 | 0.00 | 0.00 | 40 | 1014.4 |
| 20260505190033 | 87 | 84 | 0.0 | 9.0 | 0.00 | 0.00 | 0.00 | 45 | 1014.5 |
| 20260505185516 | 86 | 281 | 2.0 | 10.0 | 0.00 | 0.00 | 0.00 | 43 | 1014.6 |
| 20260505185016 | 87 | 64 | 4.0 | 10.0 | 0.00 | 0.00 | 0.00 | 44 | 1014.6 |
| 20260505184541 | 87 | 11 | 5.0 | 10.0 | 0.00 | 0.00 | 0.00 | 44 | 1014.6 |
| 20260505184016 | 87 | 104 | 4.0 | 9.0 | 0.00 | 0.00 | 0.00 | 43 | 1014.6 |
| 20260505183521 | 87 | 180 | 3.0 | 10.0 | 0.00 | 0.00 | 0.00 | 44 | 1014.7 |
| 20260505183036 | 87 | 115 | 2.0 | 10.0 | 0.00 | 0.00 | 0.00 | 46 | 1014.6 |
| 20260505182516 | 87 | 119 | 2.0 | 8.0 | 0.00 | 0.00 | 0.00 | 45 | 1014.7 |
| 20260505182022 | 87 | 153 | 2.0 | 8.0 | 0.00 | 0.00 | 0.00 | 43 | 1014.8 |
| 20260505181547 | 86 | 121 | 5.0 | 8.0 | 0.00 | 0.00 | 0.00 | 46 | 1015.0 |
| 20260505181016 | 85 | 85 | 2.0 | 8.0 | 0.00 | 0.00 | 0.00 | 46 | 1015.0 |
| 20260505180515 | 87 | 107 | 2.0 | 9.0 | 0.00 | 0.00 | 0.00 | 44 | 1014.9 |
| 20260505180036 | 85 | 109 | 3.0 | 9.0 | 0.00 | 0.00 | 0.00 | 49 | 1015.0 |
| 20260505175516 | 84 | 67 | 2.0 | 8.0 | 0.00 | 0.00 | 0.00 | 50 | 1015.2 |
| 20260505175017 | 82 | 120 | 4.0 | 8.0 | 0.00 | 0.00 | 0.00 | 51 | 1015.1 |
| 20260505174540 | 81 | 28 | 2.0 | 8.0 | 0.00 | 0.00 | 0.00 | 53 | 1015.3 |
| 20260505174016 | 81 | 24 | 2.0 | 10.0 | 0.00 | 0.00 | 0.00 | 51 | 1015.2 |
| 20260505173517 | 82 | 78 | 4.0 | 10.0 | 0.00 | 0.00 | 0.00 | 51 | 1015.4 |
| 20260505173031 | 82 | 25 | 4.0 | 9.0 | 0.00 | 0.00 | 0.00 | 52 | 1015.4 |
| 20260505172519 | 82 | 0 | 2.0 | 12.0 | 0.00 | 0.00 | 0.00 | 53 | 1015.3 |
| 20260505172019 | 82 | 57 | 5.0 | 12.0 | 0.00 | 0.00 | 0.00 | 53 | 1015.4 |
| 20260505171541 | 81 | 61 | 3.0 | 10.0 | 0.00 | 0.00 | 0.00 | 53 | 1015.4 |
| 20260505171017 | 81 | 65 | 3.0 | 11.0 | 0.00 | 0.00 | 0.00 | 53 | 1015.5 |
| 20260505170516 | 81 | 63 | 6.0 | 12.0 | 0.00 | 0.00 | 0.00 | 53 | 1015.6 |
| 20260505170036 | 81 | 55 | 6.0 | 12.0 | 0.00 | 0.00 | 0.00 | 52 | 1015.5 |
| 20260505165517 | 83 | 83 | 6.0 | 13.0 | 0.00 | 0.00 | 0.00 | 52 | 1015.4 |
| 20260505165023 | 83 | 42 | 7.0 | 13.0 | 0.00 | 0.00 | 0.00 | 51 | 1015.5 |
| 20260505164535 | 84 | 34 | 5.0 | 13.0 | 0.00 | 0.00 | 0.00 | 50 | 1015.6 |
| 20260505164021 | 84 | 50 | 7.0 | 12.0 | 0.00 | 0.00 | 0.00 | 50 | 1015.6 |
| 20260505163524 | 83 | 114 | 6.0 | 12.0 | 0.00 | 0.00 | 0.00 | 52 | 1015.7 |
| 20260505163046 | 84 | 85 | 5.0 | 12.0 | 0.00 | 0.00 | 0.00 | 51 | 1015.9 |
| 20260505162520 | 84 | 106 | 6.0 | 12.0 | 0.00 | 0.00 | 0.00 | 50 | 1015.7 |
| 20260505162020 | 83 | 60 | 4.0 | 12.0 | 0.00 | 0.00 | 0.00 | 52 | 1015.8 |
| 20260505161538 | 83 | 81 | 6.0 | 12.0 | 0.00 | 0.00 | 0.00 | 51 | 1015.9 |
| 20260505161021 | 82 | 60 | 3.0 | 11.0 | 0.00 | 0.00 | 0.00 | 54 | 1015.9 |
| 20260505160521 | 84 | 78 | 5.0 | 11.0 | 0.00 | 0.00 | 0.00 | 51 | 1015.9 |
| 20260505153042 | 82 | 120 | 6.0 | 11.0 | 0.00 | 0.00 | 0.00 | 56 | 1015.9 |
| 20260505152517 | 80 | 94 | 6.0 | 11.0 | 0.00 | 0.00 | 0.00 | 57 | 1015.9 |
| 20260505152019 | 82 | 67 | 5.0 | 10.0 | 0.00 | 0.00 | 0.00 | 56 | 1015.8 |
| 20260505151535 | 81 | 103 | 5.0 | 14.0 | 0.00 | 0.00 | 0.00 | 59 | 1015.8 |
| 20260505151022 | 80 | 89 | 8.0 | 14.0 | 0.00 | 0.00 | 0.00 | 59 | 1015.7 |
| 20260505150522 | 81 | 107 | 5.0 | 9.0 | 0.00 | 0.00 | 0.00 | 60 | 1015.7 |
| 20260505140520 | 77 | 111 | 8.0 | 13.0 | 0.00 | 0.00 | 0.00 | 69 | 1015.4 |
| 20260505125016 | 71 | 92 | 5.0 | 9.0 | 0.00 | 0.00 | 0.00 | 80 | 1015.3 |
| 20260505124537 | 71 | 78 | 4.0 | 8.0 | 0.00 | 0.00 | 0.00 | 82 | 1015.2 |
| 20260505124016 | 70 | 89 | 2.0 | 7.0 | 0.00 | 0.00 | 0.00 | 83 | 1015.3 |
| 20260505123516 | 70 | 78 | 3.0 | 6.0 | 0.00 | 0.00 | 0.00 | 84 | 1015.1 |
| 20260505123048 | 69 | 58 | 3.0 | 6.0 | 0.00 | 0.00 | 0.00 | 84 | 1015.1 |
| 20260505122518 | 69 | 55 | 2.0 | 6.0 | 0.00 | 0.00 | 0.00 | 85 | 1015.2 |
| 20260505122018 | 68 | 73 | 2.0 | 6.0 | 0.00 | 0.00 | 0.00 | 86 | 1015.3 |
| 20260505121536 | 67 | 42 | 3.0 | 6.0 | 0.00 | 0.00 | 0.00 | 88 | 1015.2 |
| 20260505121017 | 67 | 100 | 1.0 | 4.0 | 0.00 | 0.00 | 0.00 | 89 | 1015.3 |
| 20260505120516 | 66 | 81 | 2.0 | 4.0 | 0.00 | 0.00 | 0.00 | 92 | 1015.3 |
| 20260505120046 | 65 | 80 | 0.0 | 2.0 | 0.00 | 0.00 | 0.00 | 93 | 1015.3 |
| 20260505115516 | 63 | 0 | 0.0 | 0.0 | 0.00 | 0.00 | 0.00 | 94 | 1015.2 |
| 20260505115016 | 62 | 0 | 0.0 | 0.0 | 0.00 | 0.00 | 0.00 | 95 | 1015.3 |
| 20260505114538 | 62 | 0 | 0.0 | 0.0 | 0.00 | 0.00 | 0.00 | 95 | 1015.1 |
| 20260505114017 | 61 | 0 | 0.0 | 0.0 | 0.00 | 0.00 | 0.00 | 95 | 1015.0 |
| 20260505113516 | 60 | 0 | 0.0 | 0.0 | 0.00 | 0.00 | 0.00 | 95 | 1015.0 |
| 20260505113036 | 60 | 0 | 0.0 | 0.0 | 0.00 | 0.00 | 0.00 | 95 | 1015.0 |
| 20260505112519 | 59 | 0 | 0.0 | 0.0 | 0.00 | 0.00 | 0.00 | 95 | 1015.0 |
| 20260505112016 | 59 | 0 | 0.0 | 0.0 | 0.00 | 0.00 | 0.00 | 94 | 1015.0 |
| 20260505111538 | 59 | 0 | 0.0 | 0.0 | 0.00 | 0.00 | 0.00 | 94 | 1014.8 |
| 20260505111016 | 59 | 0 | 0.0 | 0.0 | 0.00 | 0.00 | 0.00 | 94 | 1014.6 |
| 20260505110516 | 59 | 0 | 0.0 | 0.0 | 0.00 | 0.00 | 0.00 | 95 | 1014.5 |
| 20260505102016 | 58 | 0 | 0.0 | 0.0 | 0.00 | 0.00 | 0.00 | 94 | 1014.1 |
| 20260505101535 | 58 | 0 | 0.0 | 0.0 | 0.00 | 0.00 | 0.00 | 94 | 1014.1 |
| 20260505101016 | 58 | 0 | 0.0 | 0.0 | 0.00 | 0.00 | 0.00 | 94 | 1014.1 |
| 20260505100516 | 58 | 0 | 0.0 | 0.0 | 0.00 | 0.00 | 0.00 | 94 | 1014.1 |
| 20260505100036 | 58 | 0 | 0.0 | 0.0 | 0.00 | 0.00 | 0.00 | 94 | 1014.0 |
| 20260505095522 | 58 | 0 | 0.0 | 0.0 | 0.00 | 0.00 | 0.00 | 94 | 1014.0 |
| 20260505095017 | 58 | 0 | 0.0 | 1.0 | 0.00 | 0.00 | 0.00 | 94 | 1014.0 |
| 20260505094539 | 58 | 0 | 0.0 | 1.0 | 0.00 | 0.00 | 0.00 | 94 | 1014.0 |
| 20260505094016 | 58 | 0 | 0.0 | 0.0 | 0.00 | 0.00 | 0.00 | 93 | 1014.1 |
| 20260505093516 | 58 | 0 | 0.0 | 0.0 | 0.00 | 0.00 | 0.00 | 93 | 1014.2 |
| 20260505093037 | 58 | 0 | 0.0 | 0.0 | 0.00 | 0.00 | 0.00 | 93 | 1014.1 |
| 20260505092515 | 58 | 0 | 0.0 | 0.0 | 0.00 | 0.00 | 0.00 | 93 | 1014.0 |
| 20260505092016 | 58 | 0 | 0.0 | 0.0 | 0.00 | 0.00 | 0.00 | 93 | 1013.9 |
| 20260505091535 | 58 | 0 | 0.0 | 0.0 | 0.00 | 0.00 | 0.00 | 93 | 1013.9 |
| 20260505091016 | 58 | 0 | 0.0 | 0.0 | 0.00 | 0.00 | 0.00 | 93 | 1013.9 |
| 20260505090516 | 58 | 0 | 0.0 | 0.0 | 0.00 | 0.00 | 0.00 | 93 | 1013.8 |
| 20260505090037 | 58 | 0 | 0.0 | 0.0 | 0.00 | 0.00 | 0.00 | 93 | 1013.7 |
| 20260505085516 | 58 | 0 | 0.0 | 0.0 | 0.00 | 0.00 | 0.00 | 92 | 1013.7 |
| 20260505085016 | 58 | 0 | 0.0 | 0.0 | 0.00 | 0.00 | 0.00 | 92 | 1013.7 |
| 20260505084537 | 59 | 0 | 0.0 | 1.0 | 0.00 | 0.00 | 0.00 | 93 | 1013.7 |
| 20260505084015 | 58 | 0 | 0.0 | 2.0 | 0.00 | 0.00 | 0.00 | 92 | 1013.7 |
| 20260505083519 | 60 | 0 | 0.0 | 3.0 | 0.00 | 0.00 | 0.00 | 92 | 1013.8 |
| 20260505083039 | 60 | 68 | 1.0 | 3.0 | 0.00 | 0.00 | 0.00 | 93 | 1013.5 |
| 20260505082517 | 59 | 68 | 0.0 | 2.0 | 0.00 | 0.00 | 0.00 | 94 | 1013.6 |
| 20260505082016 | 57 | 0 | 0.0 | 1.0 | 0.00 | 0.00 | 0.00 | 92 | 1013.7 |
| 20260505081537 | 58 | 0 | 0.0 | 2.0 | 0.00 | 0.00 | 0.00 | 92 | 1013.7 |
| 20260505081024 | 58 | 0 | 0.0 | 2.0 | 0.00 | 0.00 | 0.00 | 92 | 1013.8 |
| 20260505080520 | 58 | 0 | 0.0 | 0.0 | 0.00 | 0.00 | 0.00 | 92 | 1013.6 |
| 20260505080038 | 59 | 0 | 0.0 | 0.0 | 0.00 | 0.00 | 0.00 | 93 | 1013.5 |
| 20260505075516 | 59 | 0 | 0.0 | 0.0 | 0.00 | 0.00 | 0.00 | 93 | 1013.4 |
| 20260505075016 | 58 | 0 | 0.0 | 0.0 | 0.00 | 0.00 | 0.00 | 93 | 1013.6 |
| 20260505074536 | 58 | 0 | 0.0 | 0.0 | 0.00 | 0.00 | 0.00 | 93 | 1013.8 |
| 20260505074016 | 58 | 0 | 0.0 | 0.0 | 0.00 | 0.00 | 0.00 | 93 | 1013.7 |
| 20260505073515 | 58 | 0 | 0.0 | 0.0 | 0.00 | 0.00 | 0.00 | 92 | 1013.8 |
| 20260505073035 | 58 | 0 | 0.0 | 0.0 | 0.00 | 0.00 | 0.00 | 92 | 1013.9 |
| 20260505072521 | 58 | 0 | 0.0 | 0.0 | 0.00 | 0.00 | 0.00 | 92 | 1013.8 |
| 20260505072020 | 59 | 0 | 0.0 | 1.0 | 0.00 | 0.00 | 0.00 | 92 | 1013.9 |
| 20260505071540 | 59 | 0 | 0.0 | 1.0 | 0.00 | 0.00 | 0.00 | 92 | 1013.9 |
| 20260505071020 | 58 | 0 | 0.0 | 0.0 | 0.00 | 0.00 | 0.00 | 92 | 1014.1 |
| 20260505070524 | 58 | 0 | 0.0 | 0.0 | 0.00 | 0.00 | 0.00 | 91 | 1014.2 |
| 20260505070038 | 58 | 0 | 0.0 | 0.0 | 0.00 | 0.00 | 0.00 | 91 | 1014.1 |
| 20260505065520 | 58 | 0 | 0.0 | 0.0 | 0.00 | 0.00 | 0.00 | 91 | 1014.1 |
| 20260505065021 | 58 | 0 | 0.0 | 0.0 | 0.00 | 0.00 | 0.00 | 92 | 1014.1 |
| 20260505064549 | 58 | 0 | 0.0 | 0.0 | 0.00 | 0.00 | 0.00 | 91 | 1014.0 |
| 20260505064020 | 59 | 0 | 0.0 | 1.0 | 0.00 | 0.00 | 0.00 | 91 | 1014.0 |
| 20260505063521 | 59 | 0 | 0.0 | 1.0 | 0.00 | 0.00 | 0.00 | 91 | 1014.1 |
| 20260505063041 | 59 | 0 | 0.0 | 0.0 | 0.00 | 0.00 | 0.00 | 91 | 1014.2 |
| 20260505062518 | 59 | 0 | 0.0 | 0.0 | 0.00 | 0.00 | 0.00 | 91 | 1014.4 |
| 20260505062021 | 60 | 0 | 0.0 | 0.0 | 0.00 | 0.00 | 0.00 | 91 | 1014.5 |
| 20260505061541 | 60 | 0 | 0.0 | 0.0 | 0.00 | 0.00 | 0.00 | 91 | 1014.5 |
| 20260505061020 | 59 | 0 | 0.0 | 0.0 | 0.00 | 0.00 | 0.00 | 90 | 1014.5 |
| 20260505060520 | 59 | 0 | 0.0 | 0.0 | 0.00 | 0.00 | 0.00 | 90 | 1014.4 |
| 20260505060044 | 60 | 0 | 0.0 | 0.0 | 0.00 | 0.00 | 0.00 | 90 | 1014.5 |
| 20260505055521 | 60 | 0 | 0.0 | 0.0 | 0.00 | 0.00 | 0.00 | 90 | 1014.6 |
| 20260505055022 | 60 | 0 | 0.0 | 0.0 | 0.00 | 0.00 | 0.00 | 89 | 1014.7 |
| 20260505054548 | 60 | 0 | 0.0 | 0.0 | 0.00 | 0.00 | 0.00 | 90 | 1014.8 |
| 20260505054017 | 60 | 0 | 0.0 | 0.0 | 0.00 | 0.00 | 0.00 | 89 | 1014.9 |
| 20260505053523 | 60 | 0 | 0.0 | 0.0 | 0.00 | 0.00 | 0.00 | 89 | 1014.9 |
| 20260505053035 | 60 | 0 | 0.0 | 0.0 | 0.00 | 0.00 | 0.00 | 88 | 1015.0 |
| 20260505052521 | 60 | 0 | 0.0 | 0.0 | 0.00 | 0.00 | 0.00 | 88 | 1015.0 |
| 20260505052021 | 61 | 0 | 0.0 | 0.0 | 0.00 | 0.00 | 0.00 | 87 | 1015.0 |
| 20260505051542 | 61 | 0 | 0.0 | 0.0 | 0.00 | 0.00 | 0.00 | 87 | 1015.1 |
| 20260505051021 | 61 | 0 | 0.0 | 0.0 | 0.00 | 0.00 | 0.00 | 87 | 1015.2 |
| 20260505050520 | 62 | 0 | 0.0 | 0.0 | 0.00 | 0.00 | 0.00 | 86 | 1015.2 |
| 20260505041537 | 64 | 0 | 0.0 | 0.0 | 0.00 | 0.00 | 0.00 | 82 | 1015.6 |
| 20260505041020 | 64 | 0 | 0.0 | 0.0 | 0.00 | 0.00 | 0.00 | 80 | 1015.6 |
| 20260505040520 | 65 | 0 | 0.0 | 1.0 | 0.00 | 0.00 | 0.00 | 79 | 1015.5 |
| 20260505040050 | 66 | 0 | 0.0 | 2.0 | 0.00 | 0.00 | 0.00 | 78 | 1015.6 |
| 20260505035521 | 67 | 0 | 0.0 | 2.0 | 0.00 | 0.00 | 0.00 | 76 | 1015.6 |
| 20260505035020 | 67 | 68 | 1.0 | 2.0 | 0.00 | 0.00 | 0.00 | 75 | 1015.4 |
| 20260505034552 | 68 | 0 | 0.0 | 3.0 | 0.00 | 0.00 | 0.00 | 74 | 1015.4 |
| 20260505034018 | 68 | 0 | 1.0 | 4.0 | 0.00 | 0.00 | 0.00 | 74 | 1015.5 |
| 20260505033518 | 68 | 75 | 1.0 | 4.0 | 0.00 | 0.00 | 0.00 | 73 | 1015.5 |
| 20260505033043 | 69 | 83 | 1.0 | 4.0 | 0.00 | 0.00 | 0.00 | 73 | 1015.5 |
| 20260505032517 | 69 | 71 | 2.0 | 4.0 | 0.00 | 0.00 | 0.00 | 73 | 1015.5 |
| 20260505032018 | 69 | 69 | 2.0 | 4.0 | 0.00 | 0.00 | 0.00 | 72 | 1015.5 |
| 20260505031538 | 69 | 75 | 2.0 | 6.0 | 0.00 | 0.00 | 0.00 | 72 | 1015.5 |
| 20260505031017 | 69 | 99 | 2.0 | 7.0 | 0.00 | 0.00 | 0.00 | 72 | 1015.6 |
| 20260505030517 | 69 | 43 | 4.0 | 7.0 | 0.00 | 0.00 | 0.00 | 71 | 1015.6 |
| 20260505030046 | 69 | 81 | 3.0 | 7.0 | 0.00 | 0.00 | 0.00 | 71 | 1015.7 |
| 20260505025521 | 70 | 61 | 4.0 | 7.0 | 0.00 | 0.00 | 0.00 | 71 | 1015.6 |
| 20260505025017 | 70 | 98 | 4.0 | 7.0 | 0.00 | 0.00 | 0.00 | 71 | 1015.6 |
| 20260505024536 | 70 | 86 | 3.0 | 9.0 | 0.00 | 0.00 | 0.00 | 71 | 1015.6 |
| 20260505024021 | 70 | 78 | 3.0 | 9.0 | 0.00 | 0.00 | 0.00 | 71 | 1015.4 |
| 20260505023521 | 70 | 82 | 4.0 | 10.0 | 0.00 | 0.00 | 0.00 | 71 | 1015.4 |
| 20260505023046 | 70 | 78 | 4.0 | 10.0 | 0.00 | 0.00 | 0.00 | 70 | 1015.4 |
| 20260505022521 | 70 | 138 | 5.0 | 9.0 | 0.00 | 0.00 | 0.00 | 70 | 1015.4 |
| 20260505022021 | 70 | 92 | 3.0 | 9.0 | 0.00 | 0.00 | 0.00 | 70 | 1015.4 |
| 20260505021541 | 70 | 121 | 4.0 | 9.0 | 0.00 | 0.00 | 0.00 | 70 | 1015.4 |
| 20260505021024 | 70 | 74 | 4.0 | 8.0 | 0.00 | 0.00 | 0.00 | 70 | 1015.3 |
| 20260505020521 | 70 | 80 | 4.0 | 8.0 | 0.00 | 0.00 | 0.00 | 70 | 1015.3 |
| 20260505020052 | 70 | 80 | 4.0 | 8.0 | 0.00 | 0.00 | 0.00 | 70 | 1015.2 |
| 20260505015522 | 70 | 82 | 3.0 | 7.0 | 0.00 | 0.00 | 0.00 | 69 | 1015.2 |
| 20260505015018 | 71 | 86 | 3.0 | 8.0 | 0.00 | 0.00 | 0.00 | 69 | 1015.1 |
| 20260505014542 | 71 | 68 | 4.0 | 8.0 | 0.00 | 0.00 | 0.00 | 69 | 1015.1 |
| 20260505014021 | 71 | 92 | 3.0 | 8.0 | 0.00 | 0.00 | 0.00 | 69 | 1015.0 |